Year,Month,Day,Hour,Minute,Value (Times are PST for temperature in C)
2006,04,17,00,00,1.80
2006,04,17,00,01,1.80
2006,04,17,00,02,1.80
2006,04,17,00,03,1.80
2006,04,17,00,04,1.80
2006,04,17,00,05,1.80
2006,04,17,00,06,1.80
2006,04,17,00,07,1.80
2006,04,17,00,08,1.80
2006,04,17,00,09,1.80
2006,04,17,00,10,1.80
2006,04,17,00,11,1.80
2006,04,17,00,12,1.70
2006,04,17,00,13,1.70
2006,04,17,00,14,1.70
2006,04,17,00,15,1.70
2006,04,17,00,16,1.70
2006,04,17,00,17,1.70
2006,04,17,00,18,1.70
2006,04,17,00,19,1.70
2006,04,17,00,20,1.60
2006,04,17,00,21,1.60
2006,04,17,00,22,1.50
2006,04,17,00,23,1.50
2006,04,17,00,24,1.50
2006,04,17,00,25,1.50
2006,04,17,00,26,1.40
2006,04,17,00,27,1.40
2006,04,17,00,28,1.40
2006,04,17,00,29,1.40
2006,04,17,00,30,1.40
2006,04,17,00,31,1.40
2006,04,17,00,32,1.30
2006,04,17,00,33,1.30
2006,04,17,00,34,1.30
2006,04,17,00,35,1.30
2006,04,17,00,36,1.30
2006,04,17,00,37,1.30
2006,04,17,00,38,1.20
2006,04,17,00,39,1.20
2006,04,17,00,40,1.20
2006,04,17,00,41,1.20
2006,04,17,00,42,1.20
2006,04,17,00,43,1.10
2006,04,17,00,44,1.10
2006,04,17,00,45,1.10
2006,04,17,00,46,1.10
2006,04,17,00,47,1.10
2006,04,17,00,48,1.10
2006,04,17,00,49,1.10
2006,04,17,00,50,1.00
2006,04,17,00,51,1.00
2006,04,17,00,52,1.00
2006,04,17,00,53,1.00
2006,04,17,00,54,1.00
2006,04,17,00,55,1.00
2006,04,17,00,56,1.00
2006,04,17,00,57,1.00
2006,04,17,00,58,1.00
2006,04,17,00,59,1.00
2006,04,17,01,00,1.00
2006,04,17,01,01,1.10
2006,04,17,01,02,1.00
2006,04,17,01,03,1.00
2006,04,17,01,04,1.00
2006,04,17,01,05,1.00
2006,04,17,01,06,1.00
2006,04,17,01,07,1.00
2006,04,17,01,08,1.00
2006,04,17,01,09,1.00
2006,04,17,01,10,1.00
2006,04,17,01,11,1.00
2006,04,17,01,12,1.00
2006,04,17,01,13,0.90
2006,04,17,01,14,0.90
2006,04,17,01,15,0.90
2006,04,17,01,16,0.90
2006,04,17,01,17,0.90
2006,04,17,01,18,1.00
2006,04,17,01,19,1.00
2006,04,17,01,20,1.00
2006,04,17,01,21,1.00
2006,04,17,01,22,0.90
2006,04,17,01,23,0.90
2006,04,17,01,24,0.90
2006,04,17,01,25,0.90
2006,04,17,01,26,0.90
2006,04,17,01,27,0.80
2006,04,17,01,28,0.80
2006,04,17,01,29,0.80
2006,04,17,01,30,0.80
2006,04,17,01,31,0.80
2006,04,17,01,32,0.80
2006,04,17,01,33,0.80
2006,04,17,01,34,0.80
2006,04,17,01,35,0.80
2006,04,17,01,36,0.80
2006,04,17,01,37,0.80
2006,04,17,01,38,0.80
2006,04,17,01,39,0.80
2006,04,17,01,40,0.80
2006,04,17,01,41,0.80
2006,04,17,01,42,0.80
2006,04,17,01,43,0.80
2006,04,17,01,44,0.80
2006,04,17,01,45,0.80
2006,04,17,01,46,0.80
2006,04,17,01,47,0.80
2006,04,17,01,48,0.80
2006,04,17,01,49,0.80
2006,04,17,01,50,0.80
2006,04,17,01,51,0.80
2006,04,17,01,52,0.80
2006,04,17,01,53,0.80
2006,04,17,01,54,0.80
2006,04,17,01,55,0.80
2006,04,17,01,56,0.80
2006,04,17,01,57,0.80
2006,04,17,01,58,0.80
2006,04,17,01,59,0.80
2006,04,17,02,00,0.80
2006,04,17,02,01,0.70
2006,04,17,02,02,0.70
2006,04,17,02,03,0.70
2006,04,17,02,04,0.70
2006,04,17,02,05,0.70
2006,04,17,02,06,0.70
2006,04,17,02,07,0.70
2006,04,17,02,08,0.70
2006,04,17,02,09,0.70
2006,04,17,02,10,0.70
2006,04,17,02,11,0.70
2006,04,17,02,12,0.60
2006,04,17,02,13,0.60
2006,04,17,02,14,0.60
2006,04,17,02,15,0.60
2006,04,17,02,16,0.50
2006,04,17,02,17,0.50
2006,04,17,02,18,0.50
2006,04,17,02,19,0.50
2006,04,17,02,20,0.50
2006,04,17,02,21,0.50
2006,04,17,02,22,0.50
2006,04,17,02,23,0.50
2006,04,17,02,24,0.50
2006,04,17,02,25,0.50
2006,04,17,02,26,0.50
2006,04,17,02,27,0.50
2006,04,17,02,28,0.50
2006,04,17,02,29,0.50
2006,04,17,02,30,0.50
2006,04,17,02,31,0.50
2006,04,17,02,32,0.50
2006,04,17,02,33,0.50
2006,04,17,02,34,0.50
2006,04,17,02,35,0.40
2006,04,17,02,36,0.40
2006,04,17,02,37,0.40
2006,04,17,02,38,0.40
2006,04,17,02,39,0.40
2006,04,17,02,40,0.40
2006,04,17,02,41,0.40
2006,04,17,02,42,0.40
2006,04,17,02,43,0.40
2006,04,17,02,44,0.40
2006,04,17,02,45,0.40
2006,04,17,02,46,0.40
2006,04,17,02,47,0.40
2006,04,17,02,48,0.40
2006,04,17,02,49,0.40
2006,04,17,02,50,0.40
2006,04,17,02,51,0.40
2006,04,17,02,52,0.40
2006,04,17,02,53,0.40
2006,04,17,02,54,0.40
2006,04,17,02,55,0.40
2006,04,17,02,56,0.40
2006,04,17,02,57,0.40
2006,04,17,02,58,0.40
2006,04,17,02,59,0.40
2006,04,17,03,00,0.40
2006,04,17,03,01,0.30
2006,04,17,03,02,0.30
2006,04,17,03,03,0.30
2006,04,17,03,04,0.30
2006,04,17,03,05,0.30
2006,04,17,03,06,0.30
2006,04,17,03,07,0.30
2006,04,17,03,08,0.30
2006,04,17,03,09,0.30
2006,04,17,03,10,0.30
2006,04,17,03,11,0.20
2006,04,17,03,12,0.20
2006,04,17,03,13,0.20
2006,04,17,03,14,0.20
2006,04,17,03,15,0.40
2006,04,17,03,16,0.40
2006,04,17,03,17,0.40
2006,04,17,03,18,0.40
2006,04,17,03,19,0.40
2006,04,17,03,20,0.40
2006,04,17,03,21,0.40
2006,04,17,03,22,0.40
2006,04,17,03,23,0.40
2006,04,17,03,24,0.50
2006,04,17,03,25,0.50
2006,04,17,03,26,0.50
2006,04,17,03,27,0.60
2006,04,17,03,28,0.60
2006,04,17,03,29,0.60
2006,04,17,03,30,0.60
2006,04,17,03,31,0.60
2006,04,17,03,32,0.60
2006,04,17,03,33,0.60
2006,04,17,03,34,0.60
2006,04,17,03,35,0.60
2006,04,17,03,36,0.60
2006,04,17,03,37,0.70
2006,04,17,03,38,0.70
2006,04,17,03,39,0.80
2006,04,17,03,40,0.80
2006,04,17,03,41,0.80
2006,04,17,03,42,0.80
2006,04,17,03,43,0.80
2006,04,17,03,44,0.80
2006,04,17,03,45,0.90
2006,04,17,03,46,1.00
2006,04,17,03,47,1.00
2006,04,17,03,48,1.00
2006,04,17,03,49,1.00
2006,04,17,03,50,1.10
2006,04,17,03,51,1.10
2006,04,17,03,52,1.10
2006,04,17,03,53,1.10
2006,04,17,03,54,1.10
2006,04,17,03,55,1.10
2006,04,17,03,56,1.10
2006,04,17,03,57,1.10
2006,04,17,03,58,1.10
2006,04,17,03,59,1.00
2006,04,17,04,00,1.00
2006,04,17,04,01,1.00
2006,04,17,04,02,1.00
2006,04,17,04,03,1.00
2006,04,17,04,04,0.90
2006,04,17,04,05,0.90
2006,04,17,04,06,0.80
2006,04,17,04,07,0.80
2006,04,17,04,08,0.80
2006,04,17,04,09,0.80
2006,04,17,04,10,0.80
2006,04,17,04,11,0.80
2006,04,17,04,12,0.80
2006,04,17,04,13,0.70
2006,04,17,04,14,0.70
2006,04,17,04,15,0.70
2006,04,17,04,16,0.70
2006,04,17,04,17,0.60
2006,04,17,04,18,0.60
2006,04,17,04,19,0.60
2006,04,17,04,20,0.60
2006,04,17,04,21,0.60
2006,04,17,04,22,0.50
2006,04,17,04,23,0.50
2006,04,17,04,24,0.50
2006,04,17,04,25,0.50
2006,04,17,04,26,0.60
2006,04,17,04,27,0.60
2006,04,17,04,28,0.60
2006,04,17,04,29,0.60
2006,04,17,04,30,0.60
2006,04,17,04,31,0.60
2006,04,17,04,32,0.60
2006,04,17,04,33,0.50
2006,04,17,04,34,0.50
2006,04,17,04,35,0.50
2006,04,17,04,36,0.50
2006,04,17,04,37,0.50
2006,04,17,04,38,0.50
2006,04,17,04,39,0.40
2006,04,17,04,40,0.40
2006,04,17,04,41,0.40
2006,04,17,04,42,0.40
2006,04,17,04,43,0.40
2006,04,17,04,44,0.40
2006,04,17,04,45,0.40
2006,04,17,04,46,0.40
2006,04,17,04,47,0.40
2006,04,17,04,48,0.40
2006,04,17,04,49,0.40
2006,04,17,04,50,0.40
2006,04,17,04,51,0.40
2006,04,17,04,52,0.50
2006,04,17,04,53,0.50
2006,04,17,04,54,0.50
2006,04,17,04,55,0.50
2006,04,17,04,56,0.50
2006,04,17,04,57,0.50
2006,04,17,04,58,0.60
2006,04,17,04,59,0.60
2006,04,17,05,00,0.60
2006,04,17,05,01,0.60
2006,04,17,05,02,0.60
2006,04,17,05,03,0.60
2006,04,17,05,04,0.70
2006,04,17,05,05,0.80
2006,04,17,05,06,0.80
2006,04,17,05,07,0.80
2006,04,17,05,08,0.80
2006,04,17,05,09,0.90
2006,04,17,05,10,0.90
2006,04,17,05,11,0.90
2006,04,17,05,12,0.90
2006,04,17,05,13,0.90
2006,04,17,05,14,0.90
2006,04,17,05,15,0.90
2006,04,17,05,16,0.90
2006,04,17,05,17,0.90
2006,04,17,05,18,1.00
2006,04,17,05,19,1.00
2006,04,17,05,20,1.00
2006,04,17,05,21,1.00
2006,04,17,05,22,1.00
2006,04,17,05,23,1.00
2006,04,17,05,24,1.10
2006,04,17,05,25,1.10
2006,04,17,05,26,1.10
2006,04,17,05,27,1.10
2006,04,17,05,28,1.20
2006,04,17,05,29,1.20
2006,04,17,05,30,1.20
2006,04,17,05,31,1.20
2006,04,17,05,32,1.30
2006,04,17,05,33,1.30
2006,04,17,05,34,1.30
2006,04,17,05,35,1.30
2006,04,17,05,36,1.30
2006,04,17,05,37,1.30
2006,04,17,05,38,1.30
2006,04,17,05,39,1.30
2006,04,17,05,40,1.30
2006,04,17,05,41,1.30
2006,04,17,05,42,1.30
2006,04,17,05,43,1.30
2006,04,17,05,44,1.30
2006,04,17,05,45,1.30
2006,04,17,05,46,1.30
2006,04,17,05,47,1.40
2006,04,17,05,48,1.40
2006,04,17,05,49,1.40
2006,04,17,05,50,1.40
2006,04,17,05,51,1.40
2006,04,17,05,52,1.50
2006,04,17,05,53,1.50
2006,04,17,05,54,1.50
2006,04,17,05,55,1.50
2006,04,17,05,56,1.50
2006,04,17,05,57,1.50
2006,04,17,05,58,1.50
2006,04,17,05,59,1.50
2006,04,17,06,00,1.50
2006,04,17,06,01,1.50
2006,04,17,06,02,1.50
2006,04,17,06,03,1.50
2006,04,17,06,04,1.60
2006,04,17,06,05,1.60
2006,04,17,06,06,1.70
2006,04,17,06,07,1.70
2006,04,17,06,08,1.70
2006,04,17,06,09,1.70
2006,04,17,06,10,1.80
2006,04,17,06,11,1.80
2006,04,17,06,12,1.80
2006,04,17,06,13,1.80
2006,04,17,06,14,1.80
2006,04,17,06,15,1.80
2006,04,17,06,16,1.80
2006,04,17,06,17,1.80
2006,04,17,06,18,1.80
2006,04,17,06,19,1.80
2006,04,17,06,20,1.80
2006,04,17,06,21,1.80
2006,04,17,06,22,1.80
2006,04,17,06,23,1.80
2006,04,17,06,24,1.80
2006,04,17,06,25,1.80
2006,04,17,06,26,1.80
2006,04,17,06,27,1.80
2006,04,17,06,28,1.80
2006,04,17,06,29,1.80
2006,04,17,06,30,1.80
2006,04,17,06,31,1.80
2006,04,17,06,32,1.80
2006,04,17,06,33,1.80
2006,04,17,06,34,1.80
2006,04,17,06,35,1.80
2006,04,17,06,36,1.80
2006,04,17,06,37,1.80
2006,04,17,06,38,1.80
2006,04,17,06,39,1.80
2006,04,17,06,40,1.80
2006,04,17,06,41,1.90
2006,04,17,06,42,1.90
2006,04,17,06,43,1.90
2006,04,17,06,44,1.90
2006,04,17,06,45,2.00
2006,04,17,06,46,2.00
2006,04,17,06,47,2.00
2006,04,17,06,48,2.00
2006,04,17,06,49,2.00
2006,04,17,06,50,2.00
2006,04,17,06,51,2.00
2006,04,17,06,52,2.10
2006,04,17,06,53,2.10
2006,04,17,06,54,2.10
2006,04,17,06,55,2.10
2006,04,17,06,56,2.10
2006,04,17,06,57,2.10
2006,04,17,06,58,2.10
2006,04,17,06,59,2.10
2006,04,17,07,00,2.20
2006,04,17,07,01,2.20
2006,04,17,07,02,2.20
2006,04,17,07,03,2.20
2006,04,17,07,04,2.20
2006,04,17,07,05,2.20
2006,04,17,07,06,2.20
2006,04,17,07,07,2.20
2006,04,17,07,08,2.20
2006,04,17,07,09,2.20
2006,04,17,07,10,2.20
2006,04,17,07,11,2.20
2006,04,17,07,12,2.30
2006,04,17,07,13,2.30
2006,04,17,07,14,2.30
2006,04,17,07,15,2.30
2006,04,17,07,16,2.30
2006,04,17,07,17,2.40
2006,04,17,07,18,2.40
2006,04,17,07,19,2.40
2006,04,17,07,20,2.40
2006,04,17,07,21,2.40
2006,04,17,07,22,2.40
2006,04,17,07,23,2.40
2006,04,17,07,24,2.40
2006,04,17,07,25,2.50
2006,04,17,07,26,2.50
2006,04,17,07,27,2.50
2006,04,17,07,28,2.50
2006,04,17,07,29,2.60
2006,04,17,07,30,2.60
2006,04,17,07,31,2.60
2006,04,17,07,32,2.60
2006,04,17,07,33,2.70
2006,04,17,07,34,2.70
2006,04,17,07,35,2.70
2006,04,17,07,36,2.70
2006,04,17,07,37,2.70
2006,04,17,07,38,2.80
2006,04,17,07,39,2.80
2006,04,17,07,40,2.80
2006,04,17,07,41,2.80
2006,04,17,07,42,2.90
2006,04,17,07,43,2.90
2006,04,17,07,44,2.90
2006,04,17,07,45,2.90
2006,04,17,07,46,3.00
2006,04,17,07,47,3.10
2006,04,17,07,48,3.10
2006,04,17,07,49,3.10
2006,04,17,07,50,3.20
2006,04,17,07,51,3.20
2006,04,17,07,52,3.30
2006,04,17,07,53,3.30
2006,04,17,07,54,3.40
2006,04,17,07,55,3.40
2006,04,17,07,56,3.50
2006,04,17,07,57,3.50
2006,04,17,07,58,3.60
2006,04,17,07,59,3.60
2006,04,17,08,00,3.60
2006,04,17,08,01,3.70
2006,04,17,08,02,3.70
2006,04,17,08,03,3.80
2006,04,17,08,04,3.80
2006,04,17,08,05,3.80
2006,04,17,08,06,3.80
2006,04,17,08,07,3.80
2006,04,17,08,08,3.80
2006,04,17,08,09,3.90
2006,04,17,08,10,3.90
2006,04,17,08,11,3.90
2006,04,17,08,12,3.90
2006,04,17,08,13,4.00
2006,04,17,08,14,4.00
2006,04,17,08,15,4.00
2006,04,17,08,16,4.00
2006,04,17,08,17,4.10
2006,04,17,08,18,4.10
2006,04,17,08,19,4.20
2006,04,17,08,20,4.20
2006,04,17,08,21,4.20
2006,04,17,08,22,4.20
2006,04,17,08,23,4.20
2006,04,17,08,24,4.30
2006,04,17,08,25,4.30
2006,04,17,08,26,4.40
2006,04,17,08,27,4.40
2006,04,17,08,28,4.50
2006,04,17,08,29,4.50
2006,04,17,08,30,4.60
2006,04,17,08,31,4.60
2006,04,17,08,32,4.60
2006,04,17,08,33,4.60
2006,04,17,08,34,4.60
2006,04,17,08,35,4.70
2006,04,17,08,36,4.70
2006,04,17,08,37,4.80
2006,04,17,08,38,4.80
2006,04,17,08,39,4.80
2006,04,17,08,40,4.80
2006,04,17,08,41,4.80
2006,04,17,08,42,4.80
2006,04,17,08,43,4.90
2006,04,17,08,44,4.90
2006,04,17,08,45,4.90
2006,04,17,08,46,4.90
2006,04,17,08,47,5.10
2006,04,17,08,48,5.10
2006,04,17,08,49,5.10
2006,04,17,08,50,5.10
2006,04,17,08,51,5.10
2006,04,17,08,52,5.10
2006,04,17,08,53,5.20
2006,04,17,08,54,5.20
2006,04,17,08,55,5.20
2006,04,17,08,56,5.20
2006,04,17,08,57,5.20
2006,04,17,08,58,5.20
2006,04,17,08,59,5.30
2006,04,17,09,00,5.30
2006,04,17,09,01,5.30
2006,04,17,09,02,5.30
2006,04,17,09,03,5.30
2006,04,17,09,04,5.30
2006,04,17,09,05,5.30
2006,04,17,09,06,5.40
2006,04,17,09,07,5.40
2006,04,17,09,08,5.50
2006,04,17,09,09,5.50
2006,04,17,09,10,5.50
2006,04,17,09,11,5.60
2006,04,17,09,12,5.60
2006,04,17,09,13,5.70
2006,04,17,09,14,5.70
2006,04,17,09,15,5.70
2006,04,17,09,16,5.80
2006,04,17,09,17,6.00
2006,04,17,09,18,6.00
2006,04,17,09,19,6.10
2006,04,17,09,20,6.20
2006,04,17,09,21,6.20
2006,04,17,09,22,6.30
2006,04,17,09,23,6.40
2006,04,17,09,24,6.40
2006,04,17,09,25,6.40
2006,04,17,09,26,6.40
2006,04,17,09,27,6.50
2006,04,17,09,28,6.60
2006,04,17,09,29,6.60
2006,04,17,09,30,6.70
2006,04,17,09,31,6.70
2006,04,17,09,32,6.80
2006,04,17,09,33,6.90
2006,04,17,09,34,7.00
2006,04,17,09,35,7.10
2006,04,17,09,36,7.20
2006,04,17,09,37,7.40
2006,04,17,09,38,7.50
2006,04,17,09,39,7.60
2006,04,17,09,40,7.70
2006,04,17,09,41,7.70
2006,04,17,09,42,7.80
2006,04,17,09,43,7.80
2006,04,17,09,44,7.80
2006,04,17,09,45,7.90
2006,04,17,09,46,8.00
2006,04,17,09,47,8.00
2006,04,17,09,48,8.10
2006,04,17,09,49,8.10
2006,04,17,09,50,8.10
2006,04,17,09,51,8.10
2006,04,17,09,52,8.00
2006,04,17,09,53,7.90
2006,04,17,09,54,7.90
2006,04,17,09,55,7.80
2006,04,17,09,56,7.80
2006,04,17,09,57,7.80
2006,04,17,09,58,7.80
2006,04,17,09,59,7.80
2006,04,17,10,00,7.80
2006,04,17,10,01,7.80
2006,04,17,10,02,7.80
2006,04,17,10,03,7.80
2006,04,17,10,04,7.90
2006,04,17,10,05,7.90
2006,04,17,10,06,7.90
2006,04,17,10,07,8.00
2006,04,17,10,08,8.10
2006,04,17,10,09,8.20
2006,04,17,10,10,8.20
2006,04,17,10,11,8.20
2006,04,17,10,12,8.30
2006,04,17,10,13,8.40
2006,04,17,10,14,8.40
2006,04,17,10,15,8.50
2006,04,17,10,16,8.50
2006,04,17,10,17,8.60
2006,04,17,10,18,8.60
2006,04,17,10,19,8.70
2006,04,17,10,20,8.70
2006,04,17,10,21,8.70
2006,04,17,10,22,8.70
2006,04,17,10,23,8.70
2006,04,17,10,24,8.70
2006,04,17,10,25,8.70
2006,04,17,10,26,8.70
2006,04,17,10,27,8.70
2006,04,17,10,28,8.70
2006,04,17,10,29,8.70
2006,04,17,10,30,8.70
2006,04,17,10,31,8.70
2006,04,17,10,32,8.70
2006,04,17,10,33,8.70
2006,04,17,10,34,8.80
2006,04,17,10,35,8.80
2006,04,17,10,36,8.80
2006,04,17,10,37,8.90
2006,04,17,10,38,8.90
2006,04,17,10,39,8.90
2006,04,17,10,40,9.00
2006,04,17,10,41,9.00
2006,04,17,10,42,9.10
2006,04,17,10,43,9.20
2006,04,17,10,44,9.30
2006,04,17,10,45,9.40
2006,04,17,10,46,9.60
2006,04,17,10,47,9.70
2006,04,17,10,48,9.70
2006,04,17,10,49,9.80
2006,04,17,10,50,9.70
2006,04,17,10,51,9.70
2006,04,17,10,52,9.80
2006,04,17,10,53,9.80
2006,04,17,10,54,9.80
2006,04,17,10,55,9.80
2006,04,17,10,56,9.90
2006,04,17,10,57,9.90
2006,04,17,10,58,9.90
2006,04,17,10,59,10.00
2006,04,17,11,00,10.10
2006,04,17,11,01,10.10
2006,04,17,11,02,10.20
2006,04,17,11,03,10.30
2006,04,17,11,04,10.20
2006,04,17,11,05,10.20
2006,04,17,11,06,10.20
2006,04,17,11,07,10.20
2006,04,17,11,08,10.20
2006,04,17,11,09,10.30
2006,04,17,11,10,10.20
2006,04,17,11,11,10.20
2006,04,17,11,12,10.10
2006,04,17,11,13,10.10
2006,04,17,11,14,10.10
2006,04,17,11,15,10.10
2006,04,17,11,16,10.00
2006,04,17,11,17,9.80
2006,04,17,11,18,9.80
2006,04,17,11,19,9.70
2006,04,17,11,20,9.70
2006,04,17,11,21,9.70
2006,04,17,11,22,9.70
2006,04,17,11,23,9.70
2006,04,17,11,24,9.70
2006,04,17,11,25,9.60
2006,04,17,11,26,9.50
2006,04,17,11,27,9.40
2006,04,17,11,28,9.40
2006,04,17,11,29,9.30
2006,04,17,11,30,9.20
2006,04,17,11,31,9.20
2006,04,17,11,32,9.20
2006,04,17,11,33,9.20
2006,04,17,11,34,9.20
2006,04,17,11,35,9.20
2006,04,17,11,36,9.20
2006,04,17,11,37,9.20
2006,04,17,11,38,9.10
2006,04,17,11,39,9.10
2006,04,17,11,40,9.00
2006,04,17,11,41,9.00
2006,04,17,11,42,9.00
2006,04,17,11,43,9.00
2006,04,17,11,44,9.00
2006,04,17,11,45,9.00
2006,04,17,11,46,9.00
2006,04,17,11,47,9.00
2006,04,17,11,48,9.00
2006,04,17,11,49,8.90
2006,04,17,11,50,8.90
2006,04,17,11,51,8.90
2006,04,17,11,52,8.90
2006,04,17,11,53,8.90
2006,04,17,11,54,9.00
2006,04,17,11,55,9.00
2006,04,17,11,56,9.00
2006,04,17,11,57,9.10
2006,04,17,11,58,9.20
2006,04,17,11,59,9.20
2006,04,17,12,00,9.20
2006,04,17,12,01,9.20
2006,04,17,12,02,9.20
2006,04,17,12,03,9.30
2006,04,17,12,04,9.40
2006,04,17,12,05,9.60
2006,04,17,12,06,9.70
2006,04,17,12,07,9.70
2006,04,17,12,08,9.70
2006,04,17,12,09,9.70
2006,04,17,12,10,9.70
2006,04,17,12,11,9.80
2006,04,17,12,12,9.80
2006,04,17,12,13,9.70
2006,04,17,12,14,9.70
2006,04,17,12,15,9.80
2006,04,17,12,16,9.80
2006,04,17,12,17,9.80
2006,04,17,12,18,9.80
2006,04,17,12,19,9.80
2006,04,17,12,20,9.80
2006,04,17,12,21,9.80
2006,04,17,12,22,9.70
2006,04,17,12,23,9.70
2006,04,17,12,24,9.70
2006,04,17,12,25,9.70
2006,04,17,12,26,9.70
2006,04,17,12,27,9.70
2006,04,17,12,28,9.70
2006,04,17,12,29,9.80
2006,04,17,12,30,9.90
2006,04,17,12,31,10.00
2006,04,17,12,32,10.10
2006,04,17,12,33,10.20
2006,04,17,12,34,10.40
2006,04,17,12,35,10.60
2006,04,17,12,36,10.60
2006,04,17,12,37,10.70
2006,04,17,12,38,10.80
2006,04,17,12,39,10.70
2006,04,17,12,40,10.70
2006,04,17,12,41,10.60
2006,04,17,12,42,10.40
2006,04,17,12,43,10.40
2006,04,17,12,44,10.30
2006,04,17,12,45,10.30
2006,04,17,12,46,10.30
2006,04,17,12,47,10.40
2006,04,17,12,48,10.40
2006,04,17,12,49,10.50
2006,04,17,12,50,10.60
2006,04,17,12,51,10.60
2006,04,17,12,52,10.50
2006,04,17,12,53,10.50
2006,04,17,12,54,10.60
2006,04,17,12,55,10.60
2006,04,17,12,56,10.60
2006,04,17,12,57,10.70
2006,04,17,12,58,10.70
2006,04,17,12,59,10.80
2006,04,17,13,00,10.70
2006,04,17,13,01,10.60
2006,04,17,13,02,10.50
2006,04,17,13,03,10.60
2006,04,17,13,04,10.60
2006,04,17,13,05,10.60
2006,04,17,13,06,10.60
2006,04,17,13,07,10.50
2006,04,17,13,08,10.40
2006,04,17,13,09,10.30
2006,04,17,13,10,10.20
2006,04,17,13,11,10.10
2006,04,17,13,12,10.00
2006,04,17,13,13,9.90
2006,04,17,13,14,9.80
2006,04,17,13,15,9.90
2006,04,17,13,16,9.80
2006,04,17,13,17,9.80
2006,04,17,13,18,9.80
2006,04,17,13,19,9.60
2006,04,17,13,20,9.60
2006,04,17,13,21,9.60
2006,04,17,13,22,9.60
2006,04,17,13,23,9.50
2006,04,17,13,24,9.50
2006,04,17,13,25,9.50
2006,04,17,13,26,9.40
2006,04,17,13,27,9.40
2006,04,17,13,28,9.40
2006,04,17,13,29,9.30
2006,04,17,13,30,9.40
2006,04,17,13,31,9.40
2006,04,17,13,32,9.50
2006,04,17,13,33,9.50
2006,04,17,13,34,9.60
2006,04,17,13,35,9.50
2006,04,17,13,36,9.50
2006,04,17,13,37,9.40
2006,04,17,13,38,9.40
2006,04,17,13,39,9.40
2006,04,17,13,40,9.40
2006,04,17,13,41,9.30
2006,04,17,13,42,9.30
2006,04,17,13,43,9.30
2006,04,17,13,44,9.30
2006,04,17,13,45,9.40
2006,04,17,13,46,9.50
2006,04,17,13,47,9.60
2006,04,17,13,48,9.60
2006,04,17,13,49,9.70
2006,04,17,13,50,9.70
2006,04,17,13,51,9.70
2006,04,17,13,52,9.70
2006,04,17,13,53,9.60
2006,04,17,13,54,9.60
2006,04,17,13,55,9.60
2006,04,17,13,56,9.70
2006,04,17,13,57,9.70
2006,04,17,13,58,9.80
2006,04,17,13,59,9.90
2006,04,17,14,00,9.90
2006,04,17,14,01,9.90
2006,04,17,14,02,9.80
2006,04,17,14,03,9.80
2006,04,17,14,04,9.70
2006,04,17,14,05,9.70
2006,04,17,14,06,9.70
2006,04,17,14,07,9.80
2006,04,17,14,08,9.70
2006,04,17,14,09,9.70
2006,04,17,14,10,9.70
2006,04,17,14,11,9.70
2006,04,17,14,12,9.60
2006,04,17,14,13,9.60
2006,04,17,14,14,9.60
2006,04,17,14,15,9.60
2006,04,17,14,16,9.60
2006,04,17,14,17,9.60
2006,04,17,14,18,9.70
2006,04,17,14,19,9.90
2006,04,17,14,20,10.00
2006,04,17,14,21,10.20
2006,04,17,14,22,10.30
2006,04,17,14,23,10.30
2006,04,17,14,24,10.40
2006,04,17,14,25,10.40
2006,04,17,14,26,10.30
2006,04,17,14,27,10.30
2006,04,17,14,28,10.40
2006,04,17,14,29,10.40
2006,04,17,14,30,10.40
2006,04,17,14,31,10.40
2006,04,17,14,32,10.40
2006,04,17,14,33,10.40
2006,04,17,14,34,10.40
2006,04,17,14,35,10.40
2006,04,17,14,36,10.40
2006,04,17,14,37,10.60
2006,04,17,14,38,10.60
2006,04,17,14,39,10.70
2006,04,17,14,40,10.70
2006,04,17,14,41,10.70
2006,04,17,14,42,10.70
2006,04,17,14,43,10.70
2006,04,17,14,44,10.60
2006,04,17,14,45,10.50
2006,04,17,14,46,10.40
2006,04,17,14,47,10.40
2006,04,17,14,48,10.30
2006,04,17,14,49,10.30
2006,04,17,14,50,10.30
2006,04,17,14,51,10.30
2006,04,17,14,52,10.30
2006,04,17,14,53,10.40
2006,04,17,14,54,10.30
2006,04,17,14,55,10.30
2006,04,17,14,56,10.20
2006,04,17,14,57,10.20
2006,04,17,14,58,10.20
2006,04,17,14,59,10.20
2006,04,17,15,00,10.10
2006,04,17,15,01,10.10
2006,04,17,15,02,10.10
2006,04,17,15,03,10.10
2006,04,17,15,04,10.10
2006,04,17,15,05,10.20
2006,04,17,15,06,10.20
2006,04,17,15,07,10.20
2006,04,17,15,08,10.20
2006,04,17,15,09,10.20
2006,04,17,15,10,10.20
2006,04,17,15,11,10.10
2006,04,17,15,12,10.10
2006,04,17,15,13,10.00
2006,04,17,15,14,9.90
2006,04,17,15,15,9.90
2006,04,17,15,16,9.90
2006,04,17,15,17,9.80
2006,04,17,15,18,9.80
2006,04,17,15,19,9.80
2006,04,17,15,20,9.80
2006,04,17,15,21,9.80
2006,04,17,15,22,9.90
2006,04,17,15,23,9.90
2006,04,17,15,24,9.90
2006,04,17,15,25,9.90
2006,04,17,15,26,9.90
2006,04,17,15,27,9.90
2006,04,17,15,28,10.10
2006,04,17,15,29,10.10
2006,04,17,15,30,10.10
2006,04,17,15,31,10.20
2006,04,17,15,32,10.20
2006,04,17,15,33,10.30
2006,04,17,15,34,10.30
2006,04,17,15,35,10.40
2006,04,17,15,36,10.40
2006,04,17,15,37,10.40
2006,04,17,15,38,10.40
2006,04,17,15,39,10.40
2006,04,17,15,40,10.40
2006,04,17,15,41,10.50
2006,04,17,15,42,10.60
2006,04,17,15,43,10.60
2006,04,17,15,44,10.60
2006,04,17,15,45,10.70
2006,04,17,15,46,10.70
2006,04,17,15,47,10.80
2006,04,17,15,48,10.80
2006,04,17,15,49,10.80
2006,04,17,15,50,10.80
2006,04,17,15,51,10.90
2006,04,17,15,52,10.90
2006,04,17,15,53,10.90
2006,04,17,15,54,10.90
2006,04,17,15,55,10.90
2006,04,17,15,56,10.90
2006,04,17,15,57,11.00
2006,04,17,15,58,11.10
2006,04,17,15,59,11.00
2006,04,17,16,00,10.90
2006,04,17,16,01,10.90
2006,04,17,16,02,10.90
2006,04,17,16,03,11.00
2006,04,17,16,04,10.90
2006,04,17,16,05,10.90
2006,04,17,16,06,10.90
2006,04,17,16,07,10.90
2006,04,17,16,08,10.90
2006,04,17,16,09,10.90
2006,04,17,16,10,10.90
2006,04,17,16,11,10.90
2006,04,17,16,12,11.10
2006,04,17,16,13,11.20
2006,04,17,16,14,11.20
2006,04,17,16,15,11.30
2006,04,17,16,16,11.40
2006,04,17,16,17,11.60
2006,04,17,16,18,11.70
2006,04,17,16,19,11.70
2006,04,17,16,20,11.70
2006,04,17,16,21,11.70
2006,04,17,16,22,11.80
2006,04,17,16,23,11.90
2006,04,17,16,24,12.00
2006,04,17,16,25,12.10
2006,04,17,16,26,12.20
2006,04,17,16,27,12.20
2006,04,17,16,28,12.20
2006,04,17,16,29,12.30
2006,04,17,16,30,12.20
2006,04,17,16,31,12.30
2006,04,17,16,32,12.20
2006,04,17,16,33,12.20
2006,04,17,16,34,12.30
2006,04,17,16,35,12.30
2006,04,17,16,36,12.30
2006,04,17,16,37,12.20
2006,04,17,16,38,12.30
2006,04,17,16,39,12.30
2006,04,17,16,40,12.20
2006,04,17,16,41,12.10
2006,04,17,16,42,11.90
2006,04,17,16,43,11.80
2006,04,17,16,44,11.70
2006,04,17,16,45,11.60
2006,04,17,16,46,11.60
2006,04,17,16,47,11.40
2006,04,17,16,48,11.30
2006,04,17,16,49,11.30
2006,04,17,16,50,11.30
2006,04,17,16,51,11.20
2006,04,17,16,52,11.20
2006,04,17,16,53,11.20
2006,04,17,16,54,11.20
2006,04,17,16,55,11.30
2006,04,17,16,56,11.30
2006,04,17,16,57,11.30
2006,04,17,16,58,11.30
2006,04,17,16,59,11.40
2006,04,17,17,00,11.40
2006,04,17,17,01,11.40
2006,04,17,17,02,11.60
2006,04,17,17,03,11.60
2006,04,17,17,04,11.60
2006,04,17,17,05,11.60
2006,04,17,17,06,11.60
2006,04,17,17,07,11.60
2006,04,17,17,08,11.60
2006,04,17,17,09,11.70
2006,04,17,17,10,11.80
2006,04,17,17,11,11.80
2006,04,17,17,12,11.90
2006,04,17,17,13,12.00
2006,04,17,17,14,12.10
2006,04,17,17,15,12.20
2006,04,17,17,16,12.30
2006,04,17,17,17,12.40
2006,04,17,17,18,12.50
2006,04,17,17,19,12.60
2006,04,17,17,20,12.70
2006,04,17,17,21,12.80
2006,04,17,17,22,12.90
2006,04,17,17,23,13.00
2006,04,17,17,24,13.00
2006,04,17,17,25,13.10
2006,04,17,17,26,13.00
2006,04,17,17,27,12.90
2006,04,17,17,28,12.70
2006,04,17,17,29,12.40
2006,04,17,17,30,12.20
2006,04,17,17,31,12.10
2006,04,17,17,32,12.00
2006,04,17,17,33,12.00
2006,04,17,17,34,12.00
2006,04,17,17,35,12.10
2006,04,17,17,36,12.20
2006,04,17,17,37,12.20
2006,04,17,17,38,12.20
2006,04,17,17,39,12.10
2006,04,17,17,40,12.00
2006,04,17,17,41,11.90
2006,04,17,17,42,11.90
2006,04,17,17,43,12.00
2006,04,17,17,44,12.00
2006,04,17,17,45,12.00
2006,04,17,17,46,12.00
2006,04,17,17,47,11.90
2006,04,17,17,48,11.80
2006,04,17,17,49,11.70
2006,04,17,17,50,11.70
2006,04,17,17,51,11.70
2006,04,17,17,52,11.70
2006,04,17,17,53,11.70
2006,04,17,17,54,11.70